Wind_Speed
5 4 4 3 7 7 8 10 11 11 9 8 5 1 2 5 6 8 12 11 12 13 15 18 20 20 20 20 20 21 20 16 11 10 13 13 11 14 15 13 10 7 9
3 3 4 5 7 8 7 10 10 9 8 8 9 7 7 5 4 6 8 9 11 12 13 15 17 18 22 19 17 19 17 17 14 14 12 12 13 14 6 7 13 12 10
4 3 2 3 5 7 6 9 9 7 8 8 8 10 10 11 9 6 3 3 4 7 9 10 11 12 15 15 14 13 12 14 16 16 11 9 7 6 3 2 4 6 7
2 4 3 3 3 5 5 5 6 7 9 9 10 10 10 10 9 8 5 2 3 5 6 6 8 8 9 9 14 13 11 10 6 1 4 5 6 6 7 6 8 8 10
3 4 4 6 2 3 3 2 3 6 7 10 10 10 10 10 11 10 9 5 4 8 11 13 13 13 12 10 9 9 7 6 6 7 8 9 10 10 9 10 10 10 9
10 6 3 5 5 4 3 2 3 4 4 5 6 8 7 7 9 7 7 4 2 1 0 1 2 3 5 6 7 5 7 9 11 11 10 10 12 15 15 16 15 13 10
14 14 12 10 8 6 3 4 3 3 3 3 4 6 6 7 7 6 5 3 3 5 4 4 2 1 1 3 2 2 3 5 7 7 9 8 9 10 10 10 10 10 11
14 17 17 16 13 9 8 7 6 5 3 2 2 3 4 7 9 9 8 6 4 4 6 6 7 8 9 8 6 5 5 3 2 0 5 7 6 6 4 2 4 10 13
12 17 20 21 18 13 12 11 10 7 4 3 2 2 3 6 8 7 6 6 5 7 8 9 8 7 10 10 6 6 5 6 6 6 4 7 9 8 4 4 2 2 3
12 17 22 24 19 15 15 15 14 10 6 4 3 4 6 6 6 4 3 2 1 3 6 7 9 8 8 6 3 4 3 4 4 4 4 2 1 2 2 2 3 5 6
4 13 21 26 24 18 17 16 14 11 7 5 3 3 7 7 6 6 4 2 1 3 5 8 9 8 5 3 2 3 4 2 3 3 3 2 4 6 6 7 7 6 7
4 9 17 27 27 25 22 21 18 13 7 5 4 6 8 8 7 6 6 5 5 3 5 6 4 3 1 1 2 3 3 3 3 3 4 5 7 9 10 11 10 8 7
4 7 14 21 21 21 25 25 21 15 9 6 7 8 9 8 7 8 6 5 8 4 5 4 4 4 3 2 4 4 2 2 2 3 4 6 8 10 10 8 8 7 5
1 6 10 14 18 17 14 15 13 10 7 8 9 10 10 9 8 8 8 8 7 6 7 8 9 9 8 8 8 8 7 7 7 7 8 7 8 9 11 10 7 6 4
5 7 7 9 12 12 11 11 9 10 8 7 10 9 10 13 13 12 12 11 10 9 9 8 8 6 5 6 9 11 11 7 5 6 6 6 8 8 9 7 6 7 7
8 10 11 12 11 10 10 11 12 11 11 11 11 8 11 12 15 14 12 10 9 8 6 5 4 6 6 6 7 9 9 7 5 5 7 8 9 10 9 7 4 5 6
12 14 15 15 15 14 12 8 9 11 10 10 11 12 11 13 14 13 11 10 10 7 4 7 6 5 4 4 6 7 7 5 3 4 5 7 10 11 8 4 4 5 6
20 21 21 21 19 18 17 14 12 9 9 11 12 13 14 14 12 11 10 9 8 7 7 6 5 3 4 5 5 4 3 6 6 5 7 10 14 10 6 4 5 5 3
22 21 20 18 17 16 16 16 16 15 12 9 12 14 14 11 9 7 6 3 2 3 3 3 4 5 5 6 6 1 1 1 3 6 8 11 14 8 6 4 4 5 5
18 16 13 11 10 9 9 10 9 10 9 8 8 11 12 10 7 6 4 2 3 4 3 2 2 2 2 5 7 3 3 3 3 5 7 12 12 12 7 5 7 7 5
13 11 7 5 3 2 1 2 3 3 4 4 7 10 10 8 6 3 1 3 6 7 7 8 7 5 5 5 6 7 7 4 3 5 9 12 14 12 6 6 8 5 2
11 9 6 4 6 4 4 5 7 6 3 2 6 10 10 8 6 4 4 5 7 6 7 8 8 7 8 6 8 11 11 9 7 8 11 12 13 12 5 6 6 2 0
11 12 12 10 10 10 7 5 7 8 7 5 3 7 10 6 5 4 6 6 7 7 7 4 4 3 5 7 11 13 13 11 9 10 12 13 11 8 5 5 5 4 4
13 14 17 18 16 16 13 9 9 9 9 9 7 4 5 5 3 4 5 6 7 8 8 7 4 5 7 12 11 6 6 6 8 10 10 9 7 6 5 5 6 8 8
9 9 12 13 16 17 17 15 13 11 12 12 13 12 12 11 10 9 8 7 8 7 9 9 10 9 8 8 2 5 5 5 6 7 7 8 8 7 6 6 9 8 3
12 14 12 11 12 17 19 18 19 18 18 17 16 16 16 16 15 14 13 11 11 10 8 9 9 12 11 11 8 4 5 7 5 5 7 7 6 7 6 5 5 5 6
Wind_Direction
159 115 94 47 9 7 9 15 19 26 44 57 45 25 220 209 204 205 210 219 229 227 238 240 226 228 231 230 230 241 245 239 254 281 274 277 272 253 235 242 243 241 252
147 102 86 62 33 27 18 18 22 30 52 66 70 69 83 110 167 196 204 219 216 220 231 223 228 230 236 243 233 237 241 239 253 265 270 257 263 265 261 265 254 239 208
115 79 77 57 15 20 13 20 27 53 69 72 79 81 86 87 94 113 159 195 206 209 218 223 225 224 224 224 224 232 244 254 251 248 242 241 247 257 233 238 263 242 237
117 70 75 41 7 3 11 35 44 79 79 80 86 91 90 89 89 85 85 143 193 200 199 206 213 208 219 235 231 237 241 211 186 190 200 202 217 219 231 241 249 252 246
214 61 62 18 5 333 343 52 86 103 85 81 77 76 75 74 73 70 74 103 147 154 163 171 172 171 174 180 187 188 212 262 272 260 243 246 249 251 252 250 246 247 249
219 218 244 285 311 287 272 245 136 129 96 80 75 74 75 77 74 72 75 92 127 87 80 195 247 275 291 291 277 268 262 264 268 258 259 261 263 258 255 259 244 237 222
226 225 224 230 243 242 245 191 165 157 142 126 106 99 89 85 82 74 67 83 69 83 75 70 52 66 195 165 52 323 293 268 249 254 256 267 270 267 264 248 214 232 221
242 230 232 230 233 231 200 187 170 168 163 159 132 106 101 93 89 74 69 85 99 101 95 98 98 96 93 80 69 70 83 82 83 288 239 224 239 218 259 261 227 229 228
249 234 229 228 222 225 211 198 192 184 174 168 169 154 140 119 116 102 75 67 95 109 109 111 93 82 84 75 54 50 76 64 70 68 59 53 39 24 28 10 347 259 247
233 222 220 218 223 234 224 212 201 192 196 202 195 171 154 156 138 121 102 44 349 147 128 119 107 98 95 90 79 82 52 63 67 42 37 25 16 27 323 305 286 274 276
242 227 222 211 217 221 230 213 205 201 209 217 212 189 165 167 182 187 194 256 271 156 146 134 120 107 97 82 22 346 337 3 53 61 58 24 359 357 357 353 342 331 312
236 228 219 213 213 213 212 205 199 197 213 213 203 192 188 189 191 190 166 123 127 142 136 140 149 162 145 330 335 31 37 16 0 350 357 15 13 6 5 2 356 355 352
205 214 219 210 199 206 203 192 191 187 197 189 187 188 176 168 156 136 132 152 145 165 153 162 154 139 98 80 78 82 86 74 58 34 39 22 15 13 11 2 358 358 340
61 215 210 203 194 188 188 175 174 168 170 189 184 177 164 160 153 135 132 133 140 147 128 118 110 104 100 91 82 65 53 57 56 65 65 50 24 1 351 358 7 16 19
146 154 156 161 162 163 163 145 141 144 148 160 149 156 155 148 140 133 132 129 124 121 121 120 114 97 82 65 56 54 51 51 57 62 44 17 4 2 0 5 11 14 21
123 118 120 125 126 130 140 141 136 136 139 142 139 139 140 138 135 134 133 126 116 100 108 95 80 76 73 56 39 23 18 31 42 31 5 5 12 9 4 2 20 32 9
122 119 116 110 107 103 102 109 135 134 138 141 139 138 142 143 139 136 130 114 91 71 75 92 88 76 56 15 356 356 354 5 33 2 5 16 3 355 356 25 39 19 23
115 114 108 103 100 97 95 94 95 103 125 133 134 136 142 142 140 135 125 114 100 92 81 85 79 65 24 352 348 6 78 59 64 45 20 9 1 356 353 9 13 7 358
116 116 110 103 97 94 89 87 88 86 88 108 134 141 143 140 137 135 138 137 87 67 56 56 62 54 45 33 15 355 30 358 15 14 4 355 356 352 345 350 346 344 344
124 123 118 114 108 108 105 97 84 81 73 80 128 151 150 150 156 154 153 220 310 310 295 287 302 1 14 16 21 348 320 308 323 332 339 350 351 353 337 323 323 324 323
143 144 150 169 182 234 228 175 154 130 81 98 137 152 163 178 183 185 311 335 319 308 298 290 283 279 300 332 2 1 354 297 305 318 321 328 329 334 313 300 318 350 26
178 187 197 209 209 237 297 281 261 237 212 201 199 192 201 211 218 246 279 298 312 303 292 282 276 270 298 311 322 330 334 333 303 307 313 315 316 322 299 287 306 307 276
209 217 229 248 263 261 268 275 262 257 226 226 245 218 214 224 236 272 292 305 308 295 289 239 223 311 328 314 310 304 300 297 293 292 298 303 306 294 267 280 279 242 267
249 255 248 252 262 256 257 269 267 247 225 235 242 244 218 231 240 276 305 296 295 289 257 235 256 317 309 313 303 289 279 281 286 291 295 294 286 265 248 269 258 272 292
226 258 265 275 251 256 256 257 253 254 238 242 237 250 246 243 244 258 269 277 269 311 258 262 267 271 303 320 339 28 2 325 300 293 292 280 264 248 232 256 271 264 232
270 278 267 252 239 248 254 260 254 253 245 244 241 246 252 251 253 255 259 262 268 282 297 277 270 261 274 313 274 310 349 346 324 315 315 282 241 216 224 255 241 214 216
Height
1516 1515 1514 1515 1515 1512 1511 1508 1505 1502 1500 1499 1498 1498 1498 1499 1500 1502 1504 1506 1508 1510 1512 1514 1516 1519 1521 1522 1523 1525 1526 1526 1526 1528 1530 1531 1532 1531 1532 1534 1535 1536 1536
1514 1515 1514 1515 1514 1512 1511 1509 1507 1505 1503 1501 1501 1500 1499 1499 1501 1503 1504 1506 1507 1508 1510 1512 1515 1516 1517 1518 1519 1522 1523 1524 1526 1528 1528 1529 1530 1531 1531 1531 1531 1531 1532
1513 1515 1515 1513 1513 1512 1511 1510 1509 1508 1506 1505 1504 1502 1502 1502 1503 1504 1505 1505 1506 1508 1509 1510 1511 1513 1514 1516 1518 1519 1521 1522 1523 1525 1526 1527 1528 1529 1530 1530 1532 1532 1532
1515 1514 1514 1513 1513 1512 1511 1512 1511 1511 1510 1509 1507 1506 1506 1505 1505 1505 1506 1507 1507 1509 1510 1511 1512 1514 1515 1516 1517 1519 1520 1520 1521 1522 1524 1526 1527 1528 1528 1529 1530 1531 1532
1515 1514 1513 1513 1513 1512 1512 1513 1514 1514 1513 1512 1511 1510 1509 1509 1508 1508 1508 1509 1510 1511 1511 1512 1513 1513 1515 1517 1518 1518 1519 1521 1521 1522 1524 1525 1525 1526 1526 1528 1528 1529 1530
1512 1513 1513 1513 1513 1512 1513 1514 1515 1516 1516 1514 1514 1513 1512 1512 1512 1513 1513 1513 1515 1515 1515 1515 1515 1516 1517 1517 1518 1518 1520 1520 1521 1522 1522 1522 1523 1524 1525 1526 1525 1527 1529
1511 1512 1512 1513 1513 1513 1514 1515 1516 1516 1516 1516 1515 1514 1514 1514 1515 1515 1516 1516 1517 1517 1517 1517 1517 1518 1518 1518 1518 1519 1519 1520 1521 1521 1521 1521 1522 1522 1523 1521 1521 1524 1526
1507 1508 1510 1512 1512 1513 1515 1516 1516 1516 1516 1517 1516 1516 1516 1516 1516 1517 1517 1517 1518 1518 1519 1519 1519 1519 1519 1519 1520 1521 1521 1521 1521 1520 1519 1520 1521 1522 1522 1522 1523 1523 1524
1503 1505 1508 1510 1511 1513 1515 1515 1516 1517 1518 1518 1517 1517 1517 1517 1518 1518 1520 1520 1521 1521 1521 1522 1523 1522 1522 1523 1524 1524 1524 1524 1524 1524 1524 1523 1524 1524 1524 1525 1525 1525 1526
1500 1503 1506 1508 1510 1512 1513 1515 1516 1517 1518 1517 1517 1517 1517 1518 1519 1520 1521 1522 1522 1523 1523 1524 1524 1525 1525 1526 1526 1526 1526 1526 1526 1526 1526 1525 1525 1526 1526 1525 1526 1525 1526
1498 1501 1503 1505 1508 1509 1511 1513 1515 1516 1517 1517 1517 1517 1518 1519 1520 1521 1522 1522 1523 1524 1524 1525 1526 1527 1527 1527 1527 1527 1527 1527 1527 1527 1527 1527 1527 1526 1526 1525 1525 1524 1524
1499 1500 1502 1503 1505 1507 1509 1511 1512 1515 1515 1516 1516 1517 1518 1519 1520 1521 1522 1523 1524 1526 1525 1527 1527 1528 1528 1528 1528 1527 1528 1528 1528 1527 1527 1527 1526 1526 1526 1525 1525 1524 1524
1499 1500 1501 1501 1503 1507 1509 1507 1508 1511 1514 1514 1515 1518 1519 1520 1520 1522 1524 1525 1526 1527 1528 1528 1529 1529 1529 1530 1529 1529 1529 1529 1528 1528 1528 1528 1527 1527 1527 1526 1525 1524 1524
1501 1501 1502 1502 1504 1506 1509 1508 1508 1511 1514 1516 1517 1519 1519 1521 1522 1523 1524 1525 1528 1529 1530 1530 1531 1531 1532 1532 1531 1531 1530 1530 1529 1529 1529 1529 1529 1528 1527 1526 1526 1525 1525
1503 1504 1504 1505 1507 1509 1511 1512 1512 1514 1517 1519 1518 1520 1521 1522 1523 1524 1526 1528 1530 1531 1532 1533 1533 1534 1534 1534 1533 1533 1532 1531 1531 1530 1530 1531 1530 1529 1528 1527 1526 1526 1525
1506 1507 1508 1509 1511 1512 1514 1514 1516 1518 1519 1521 1520 1523 1523 1525 1525 1526 1528 1530 1532 1533 1534 1535 1535 1535 1536 1535 1535 1534 1533 1532 1532 1532 1532 1531 1530 1529 1528 1527 1527 1526 1525
1509 1512 1512 1514 1515 1517 1519 1520 1520 1521 1521 1522 1522 1523 1525 1527 1528 1529 1530 1532 1534 1535 1536 1536 1536 1537 1537 1536 1535 1534 1533 1532 1532 1532 1532 1532 1531 1530 1529 1528 1527 1526 1525
1513 1518 1519 1519 1520 1522 1522 1523 1523 1524 1523 1523 1524 1525 1527 1528 1530 1532 1533 1535 1536 1538 1537 1538 1538 1538 1537 1536 1535 1534 1533 1533 1533 1533 1533 1532 1530 1529 1528 1528 1527 1526 1525
1519 1523 1524 1525 1526 1527 1526 1526 1525 1525 1526 1526 1526 1527 1529 1530 1532 1534 1536 1537 1538 1539 1539 1539 1538 1538 1537 1536 1535 1534 1534 1534 1534 1533 1533 1532 1530 1529 1528 1527 1526 1525 1525
1524 1526 1528 1528 1528 1528 1528 1529 1529 1528 1528 1528 1528 1529 1531 1532 1534 1536 1538 1538 1539 1538 1538 1538 1538 1538 1537 1536 1535 1534 1533 1533 1533 1533 1532 1531 1529 1528 1527 1526 1525 1524 1524
1526 1528 1528 1529 1530 1531 1530 1531 1530 1530 1531 1531 1531 1531 1533 1534 1536 1537 1538 1538 1538 1537 1537 1537 1537 1537 1536 1536 1535 1534 1533 1532 1532 1531 1530 1529 1528 1527 1525 1525 1525 1524 1524
1528 1529 1529 1529 1529 1530 1531 1531 1532 1532 1533 1533 1532 1532 1533 1534 1536 1537 1537 1537 1537 1536 1535 1535 1535 1535 1535 1534 1533 1532 1531 1530 1530 1529 1528 1527 1526 1525 1524 1524 1524 1524 1523
1527 1528 1529 1529 1529 1529 1530 1531 1532 1533 1533 1533 1532 1531 1532 1534 1535 1535 1536 1535 1535 1534 1534 1534 1534 1534 1533 1532 1531 1530 1529 1528 1527 1527 1526 1525 1523 1522 1522 1523 1523 1523 1523
1527 1527 1526 1527 1527 1527 1528 1530 1531 1532 1532 1531 1531 1531 1532 1532 1533 1533 1533 1533 1532 1532 1532 1532 1532 1531 1530 1530 1528 1526 1525 1525 1524 1523 1523 1522 1521 1521 1521 1521 1522 1522 1521
1525 1525 1524 1524 1524 1525 1526 1527 1528 1529 1529 1529 1529 1529 1530 1530 1530 1530 1530 1530 1530 1529 1529 1529 1529 1529 1528 1527 1526 1524 1523 1522 1521 1521 1520 1519 1519 1519 1519 1520 1519 1519 1520
1523 1522 1522 1521 1521 1522 1524 1524 1525 1526 1526 1526 1526 1526 1526 1526 1527 1527 1527 1527 1527 1526 1526 1526 1525 1525 1525 1525 1524 1523 1522 1521 1519 1519 1518 1517 1517 1518 1518 1518 1518 1517 1518